Weather History for Trapani, Italy

Change the Weather History Date:

Friday, December 21, 2012

  Actual Average Record
Temperature  
Mean Temperature 54 °F -  
Max Temperature 62 °F 60 °F 66 °F (1996)
Min Temperature 46 °F 48 °F 39 °F (2005)
Degree Days  
Heating Degree Days 11    
Growing Degree Days 4 (Base 50)    
Moisture  
Dew Point 54 °F    
Average Humidity 85    
Maximum Humidity 94    
Minimum Humidity 72    
Precipitation  
Precipitation 0.00 in 0.08 in - ()
Sea Level Pressure  
Sea Level Pressure 29.93 in    
Wind  
Wind Speed 9 mph ()    
Max Wind Speed 21 mph    
Max Gust Speed -    
Visibility 6.4 miles    
Events      
Averages and records for this station are not official NWS values.
T = Trace of Precipitation, MM = Missing Value Source: Averaged Metar Reports

Daily Weather History Graph

Daily Weather History Graph

Search for Another Location

Airport:

Trip Planner

Search our weather history database for the weather conditions in past years. The results will help you decide how hot, cold, wet, or windy it might be!

Date:

Astronomy

Dec. 21, 2012 Rise Set
Actual Time 7:22 AM CET 4:54 PM CET
Civil Twilight 6:52 AM CET 5:23 PM CET
Nautical Twilight 6:19 AM CET 5:56 PM CET
Astronomical Twilight 5:47 AM CET 6:28 PM CET
Moon 12:28 PM CET (12/21) 12:56 AM CET (12/21)
Length of Visible Light 10h 31m
Length of Day
9h 32m
Waxing Gibbous, 62% of the Moon is Illuminated
Dec 21
Waxing Gibbous
Dec 28
Full
Jan 5
Last Quarter
Jan 11
New
Jan 19
First Quarter

Hourly Weather History & Observations

Time (CET) Temp. Dew Point Humidity Pressure Visibility Wind Dir Wind Speed Gust Speed Precip Events Conditions
12:55 AM 50.0 °F 46.4 °F 87% 30.04 in 6.2 mi ESE 4.6 mph - N/A   Partly Cloudy
1:00 AM 50 °F 47 °F 85% 30.04 in 7 mi ESE 4.6 mph - -   Scattered Clouds
1:55 AM 51.8 °F 46.4 °F 82% 29.98 in - SE 5.8 mph - N/A   Clear
2:55 AM 51.8 °F 48.2 °F 88% 29.98 in 6.2 mi SE 10.4 mph - N/A   Partly Cloudy
3:55 AM 50.0 °F 46.4 °F 87% 29.98 in - ESE 9.2 mph - N/A   Clear
4:55 AM 53.6 °F 51.8 °F 94% 29.95 in 6.2 mi SSE 3.5 mph - N/A   Scattered Clouds
5:55 AM 55.4 °F 53.6 °F 94% 29.95 in 6.2 mi South 4.6 mph - N/A   Scattered Clouds
6:55 AM 59.0 °F 57.2 °F 94% 29.92 in 6.2 mi West 8.1 mph - N/A   Mostly Cloudy
7:00 AM 59 °F 57 °F 89% 29.94 in 6 mi West 8.1 mph - -   Partly Cloudy
7:55 AM 59.0 °F 55.4 °F 88% 29.92 in 6.2 mi West 11.5 mph - N/A   Scattered Clouds
8:55 AM 59.0 °F 57.2 °F 94% 29.92 in 6.2 mi West 15.0 mph - N/A   Scattered Clouds
9:55 AM 60.8 °F 59.0 °F 94% 29.92 in 6.2 mi West 9.2 mph - N/A   Scattered Clouds
10:55 AM 62.6 °F 57.2 °F 82% 29.92 in 6.2 mi West 16.1 mph - N/A   Scattered Clouds
11:55 AM 60.8 °F 57.2 °F 88% 29.92 in 6.2 mi WNW 15.0 mph - N/A   Scattered Clouds
12:55 PM 62.6 °F 57.2 °F 82% 29.89 in 6.2 mi WNW 16.1 mph - N/A   Scattered Clouds
1:00 PM 63 °F 58 °F 79% 29.91 in 11 mi WNW 16.1 mph - -   Partly Cloudy
1:55 PM 60.8 °F 57.2 °F 88% 29.89 in 6.2 mi WNW 18.4 mph - N/A   Partly Cloudy
2:55 PM 60.8 °F 55.4 °F 82% 29.89 in 6.2 mi NW 20.7 mph - N/A   Scattered Clouds
3:55 PM 60.8 °F 55.4 °F 82% 29.89 in 6.2 mi NW 16.1 mph - N/A   Scattered Clouds
4:55 PM 60.8 °F 51.8 °F 72% 29.89 in 6.2 mi NW 17.3 mph - N/A   Scattered Clouds
5:55 PM 60.8 °F 53.6 °F 77% 29.89 in 6.2 mi NW 16.1 mph - N/A   Scattered Clouds
6:55 PM 60.8 °F 53.6 °F 77% 29.89 in 6.2 mi NW 13.8 mph - N/A   Scattered Clouds
7:00 PM 60 °F 54 °F 76% 29.91 in 7 mi NW 13.8 mph - -   Partly Cloudy
7:55 PM 59.0 °F 53.6 °F 82% 29.89 in 6.2 mi NW 12.7 mph - N/A   Partly Cloudy
8:55 PM 59.0 °F 55.4 °F 88% 29.89 in 6.2 mi WNW 11.5 mph - N/A   Scattered Clouds
9:55 PM 59.0 °F 53.6 °F 82% 29.92 in 6.2 mi NW 13.8 mph - N/A   Scattered Clouds
10:55 PM 60.8 °F 53.6 °F 77% 29.89 in 6.2 mi NW 16.1 mph - N/A   Scattered Clouds
11:55 PM 59.0 °F 51.8 °F 77% 29.89 in 6.2 mi NW 15.0 mph - N/A   Scattered Clouds